Location: Bothwell
(41.7170°N, 112.2589°W)
Time: 01:48:33
(UTC+00:00)

Tiros 1 - Pass Details

Date: 15 May 2026
Orbit: 618 x 649 km, 48.4° (Epoch: 6 June)

Event Time Altitude Azimuth Distance (km) Brightness Sun altitude
Rises 14:02:25 0° 289° (WNW) 2,888 10.0 19.2°
Reaches altitude 10° 14:05:13 10° 272° (W) 1,977 9.1 19.8°
Maximum altitude 14:08:31 20° 225° (SW) 1,428 8.6 20.4°
Drops below altitude 10° 14:11:49 10° 178° (S) 1,969 9.7 21.0°
Sets 14:14:36 0° 162° (SSE) 2,873 10.6 21.5°
